User: anonymous   Login
Location: Caltech
(34.1382°N, 118.1253°W)
Time: 06:38:01
(UTC-07:00)
Language:

Cosmos 1937 Rocket - Orbit

View from above orbital plane
View from above orbital plane
View from above satellite
View from above satellite

Ground track
Ground track

The orbit data is extracted from the following two-line orbital elements,

1 19039U 88029B   16238.17162685  .00000019  00000-0  14686-4 0  9994
2 19039  74.0483 124.5228 0023494   8.5698 152.3656 14.38329499488293
Epoch (UTC): 25 August 2016 04:07:08
Eccentricity: 0.0023494
inclination: 74.0483°
perigee height: 747 km
apogee height: 781 km
right ascension of ascending node: 124.5228°
argument of perigee: 8.5698°
revolutions per day: 14.38329499
mean anomaly at epoch: 152.3656°
orbit number at epoch: 48829

The dashed part of the orbit path shows where the satellite is in the earth's shadow,  

DLR